Location: Broek
(53.2737°N, 5.9967°E)
Time: 22:09:18
(UTC+00:00)

Cosmos 2360 Rocket - Pass Details

Date: 10 October 2024
Orbit: 834 x 843 km, 71.0° (Epoch: 09 November)

Event Time Altitude Azimuth Distance (km) Brightness Sun altitude
Rises 20:50:58 0° 327° (NNW) 3,395 6.3 -34.5°
Reaches altitude 10° 20:53:25 10° 326° (NW) 2,458 5.4 -34.8°
Enters shadow 20:56:56 40° 317° (NW) 1,228 3.3 -35.2°
